Date String (YYYY-MM-DD hh:mm:ss) UTC,Instrument flags,Ambient pressure (hPa),Sample flow (lpm),Bypass flow (lpm),Sample temperature (°C),Ambient temperature (°C),ASC tube jacket temperature (°C),LED temperature (°C),Box temperature (°C),Sample RH (%),Span deviation,Mass concentration (μg/m³),Mass concentration (μg/m³),Mass concentration (μg/m³)
DateTimeUTC,F1_M11,P_M11,Q1_M11,Q2_M11,T1_M11,T2_M11,T3_M11,T4_M11,T5_M11,U1_M11,ZSPAN_M11,X0_M11,X2_M11,X1_M11
2023-02-15 07:00:00,,0816.3,5.00,0.00,23.0,22.3,00.0,31.8,24.8,12.4,0000.0,0006.52,0003.32,0003.17
2023-02-15 07:01:00,,0816.3,5.01,0.00,23.0,21.9,00.0,31.8,24.8,12.3,0000.0,0005.88,0003.31,0003.16
2023-02-15 07:02:00,,0816.3,4.99,0.00,23.0,21.6,00.0,31.8,24.7,12.3,0000.0,0005.35,0003.29,0003.15
2023-02-15 07:03:00,,0816.3,4.98,0.00,22.9,21.4,00.0,31.8,24.7,12.3,0000.0,0005.20,0003.28,0003.14
2023-02-15 07:04:00,,0816.3,5.00,0.00,22.9,21.2,00.0,31.8,24.6,12.3,0000.0,0004.75,0003.28,0003.15
2023-02-15 07:05:00,,0816.3,5.00,0.00,22.9,21.1,00.0,31.8,24.5,12.3,0000.0,0004.07,0003.29,0003.16
2023-02-15 07:06:00,,0816.3,4.99,0.00,22.8,21.0,00.0,31.8,24.5,12.4,0000.0,0004.60,0003.33,0003.17
2023-02-15 07:07:00,,0816.4,4.99,0.00,22.8,21.6,00.0,31.7,24.6,12.3,0000.0,0004.63,0003.34,0003.18
2023-02-15 07:08:00,,0816.4,4.99,0.00,22.9,22.6,00.0,31.7,24.9,12.3,0000.0,0004.60,0003.35,0003.19
2023-02-15 07:09:00,,0816.5,4.94,0.00,23.0,23.3,00.0,31.7,25.0,12.2,0000.0,0004.64,0003.36,0003.19
2023-02-15 07:10:00,,0816.4,5.00,0.00,23.1,22.8,00.0,31.8,25.0,12.1,0000.0,0004.49,0003.37,0003.19
2023-02-15 07:11:00,,0816.7,4.99,0.00,23.1,22.3,00.0,31.8,24.9,12.1,0000.0,0004.41,0003.40,0003.21
2023-02-15 07:12:00,,0816.5,5.02,0.00,23.0,21.9,00.0,31.8,24.7,12.2,0000.0,0004.43,0003.42,0003.24
2023-02-15 07:13:00,,0816.5,4.99,0.00,23.0,21.6,00.0,31.8,24.6,12.2,0000.0,0004.46,0003.44,0003.26
2023-02-15 07:14:00,,0816.5,4.98,0.00,22.9,21.3,00.0,31.8,24.6,12.2,0000.0,0004.58,0003.48,0003.28
2023-02-15 07:15:00,,0816.6,5.00,0.00,22.9,21.1,00.0,31.8,24.5,12.2,0000.0,0004.69,0003.51,0003.29
2023-02-15 07:16:00,,0816.8,5.02,0.00,22.9,21.7,00.0,31.8,24.7,12.2,0000.0,0004.64,0003.52,0003.30
2023-02-15 07:17:00,,0816.6,4.97,0.00,23.0,22.9,00.0,31.8,24.9,12.2,0000.0,0004.23,0003.51,0003.31
2023-02-15 07:18:00,,0816.6,4.96,0.00,23.1,23.7,00.0,31.8,25.1,12.1,0000.0,0004.14,0003.52,0003.31
2023-02-15 07:19:00,,0816.6,5.00,0.00,23.2,23.1,00.0,31.8,25.0,12.1,0000.0,0004.13,0003.52,0003.32
2023-02-15 07:20:00,,0816.7,5.01,0.00,23.1,22.6,00.0,31.9,24.9,12.1,0000.0,0004.11,0003.53,0003.32
2023-02-15 07:21:00,,0816.6,5.00,0.00,23.1,22.1,00.0,31.9,24.8,12.0,0000.0,0003.96,0003.50,0003.31
2023-02-15 07:22:00,,0816.7,5.00,0.00,23.0,21.8,00.0,31.9,24.8,11.9,0000.0,0003.93,0003.48,0003.30
2023-02-15 07:23:00,,0816.6,5.01,0.00,23.0,21.5,00.0,31.9,24.7,11.9,0000.0,0003.92,0003.47,0003.30
2023-02-15 07:24:00,,0816.7,5.01,0.00,23.0,21.3,00.0,31.9,24.7,11.8,0000.0,0003.94,0003.47,0003.30
2023-02-15 07:25:00,,0816.7,5.00,0.00,22.9,21.3,00.0,31.9,24.6,11.8,0000.0,0003.91,0003.46,0003.30
2023-02-15 07:26:00,,0816.9,5.02,0.00,23.0,22.2,00.0,31.8,24.8,11.7,0000.0,0003.84,0003.43,0003.28
2023-02-15 07:27:00,,0817.1,5.01,0.00,23.1,23.2,00.0,31.8,25.1,11.7,0000.0,0003.89,0003.42,0003.26
2023-02-15 07:28:00,,0817.1,5.00,0.00,23.2,23.5,00.0,31.9,25.1,11.6,0000.0,0003.95,0003.42,0003.24
2023-02-15 07:29:00,,0816.9,4.98,0.00,23.2,23.0,00.0,31.9,25.1,11.5,0000.0,0004.14,0003.42,0003.23
2023-02-15 07:30:00,,0817.1,4.99,0.00,23.2,22.5,00.0,31.9,24.9,11.5,0000.0,0004.20,0003.41,0003.22
2023-02-15 07:31:00,,0817.0,4.99,0.00,23.1,22.1,00.0,31.9,24.9,11.5,0000.0,0004.21,0003.38,0003.21
2023-02-15 07:32:00,,0816.9,4.98,0.00,23.1,21.8,00.0,32.0,24.8,11.5,0000.0,0004.21,0003.37,0003.20
2023-02-15 07:33:00,,0816.8,5.01,0.00,23.1,21.5,00.0,32.0,24.7,11.5,0000.0,0004.88,0003.36,0003.19
2023-02-15 07:34:00,,0816.8,5.00,0.00,23.0,21.3,00.0,31.9,24.7,11.4,0000.0,0005.67,0003.34,0003.16
2023-02-15 07:35:00,,0817.0,5.00,0.00,23.0,21.3,00.0,31.9,24.7,11.5,0000.0,0005.59,0003.31,0003.14
2023-02-15 07:36:00,,0817.2,5.02,0.00,23.0,22.1,00.0,31.9,24.8,11.4,0000.0,0005.97,0003.28,0003.13
2023-02-15 07:37:00,,0816.9,5.02,0.00,23.1,23.2,00.0,31.9,25.1,11.3,0000.0,0006.07,0003.28,0003.12
2023-02-15 07:38:00,,0816.9,4.95,0.00,23.3,23.6,00.0,31.9,25.2,11.3,0000.0,0006.22,0003.29,0003.12
2023-02-15 07:39:00,,0816.9,5.00,0.00,23.3,23.0,00.0,31.9,25.1,11.2,0000.0,0007.39,0003.27,0003.10
2023-02-15 07:40:00,,0816.9,5.01,0.00,23.2,22.5,00.0,32.0,25.0,11.2,0000.0,0007.75,0003.24,0003.05
2023-02-15 07:41:00,,0817.0,5.00,0.00,23.2,22.1,00.0,32.0,24.9,11.2,0000.0,0007.69,0003.21,0003.02
2023-02-15 07:42:00,,0816.9,5.01,0.00,23.2,21.8,00.0,32.0,24.9,11.2,0000.0,0007.75,0003.20,0002.99
2023-02-15 07:43:00,,0816.9,5.03,0.00,23.1,21.6,00.0,32.0,24.8,11.3,0000.0,0007.79,0003.20,0002.97
2023-02-15 07:44:00,,0817.0,4.99,0.00,23.1,21.4,00.0,32.0,24.8,11.3,0000.0,0007.27,0003.18,0002.94
2023-02-15 07:45:00,,0817.0,5.01,0.00,23.0,21.3,00.0,32.0,24.7,11.3,0000.0,0006.68,0003.19,0002.92
2023-02-15 07:46:00,,0816.8,5.01,0.00,23.0,21.1,00.0,32.0,24.6,11.2,0000.0,0006.70,0003.19,0002.90
2023-02-15 07:47:00,,0817.0,4.99,0.00,23.0,21.2,00.0,31.9,24.6,11.2,0000.0,0006.23,0003.17,0002.87
2023-02-15 07:48:00,,0816.9,5.00,0.00,23.0,22.2,00.0,31.9,24.9,11.2,0000.0,0006.13,0003.15,0002.84
2023-02-15 07:49:00,,0817.0,5.01,0.00,23.1,23.2,00.0,31.9,25.1,11.0,0000.0,0006.02,0003.06,0002.78
2023-02-15 07:50:00,,0816.9,5.00,0.00,23.2,23.3,00.0,31.9,25.1,10.9,0000.0,0004.92,0003.02,0002.75
2023-02-15 07:51:00,,0816.9,4.98,0.00,23.2,22.7,00.0,32.0,25.0,10.9,0000.0,0003.79,0002.97,0002.72
2023-02-15 07:52:00,,0816.9,4.98,0.00,23.2,22.2,00.0,32.0,24.9,10.9,0000.0,0003.85,0002.95,0002.71
2023-02-15 07:53:00,,0816.9,5.00,0.00,23.1,21.9,00.0,32.0,24.8,10.8,0000.0,0003.79,0002.93,0002.70
2023-02-15 07:54:00,,0817.0,4.99,0.00,23.1,21.6,00.0,32.0,24.8,10.8,0000.0,0003.78,0002.92,0002.69
2023-02-15 07:55:00,,0817.0,4.98,0.00,23.0,21.4,00.0,32.0,24.7,10.8,0000.0,0003.82,0002.90,0002.67
2023-02-15 07:56:00,,0817.0,5.00,0.00,23.0,21.2,00.0,32.0,24.6,10.8,0000.0,0003.91,0002.89,0002.67
2023-02-15 07:57:00,,0817.1,5.00,0.00,23.0,21.7,00.0,31.9,24.7,10.8,0000.0,0003.97,0002.91,0002.68
2023-02-15 07:58:00,,0817.1,4.99,0.00,23.1,22.8,00.0,31.9,25.0,10.7,0000.0,0004.03,0002.94,0002.70
2023-02-15 07:59:00,,0817.2,5.00,0.00,23.2,23.6,00.0,31.9,25.2,10.6,0000.0,0004.02,0002.96,0002.70
